Location: ??????
(38.0677°N, 22.9870°E)
Time: 10:28:35
(UTC+00:00)

Cosmos 2322 Rocket - Pass Details

Date: 23 May 2024
Orbit: 832 x 850 km, 71.0° (Epoch: 18 June)

Event Time Altitude Azimuth Distance (km) Brightness Sun altitude
Rises 00:55:13 0° 338° (NNW) 3,399 5.8 -21.5°
Reaches altitude 10° 00:57:40 10° 339° (NNW) 2,464 5.0 -21.2°
Maximum altitude 01:03:20 83° 67° (ENE) 854 2.2 -20.5°
Drops below altitude 10° 01:09:00 10° 157° (SSE) 2,461 4.4 -19.8°
Enters shadow 01:09:48 - 157° (SSE) 2,767 4.6 -19.7°
